Location: Unspecified
(51.0950°N, 12.9690°E)
Time: 22:38:43
(UTC+00:00)

SKYMED 2 - Pass Details

Date: 28 October 2021
Orbit: 621 x 623 km, 97.9° (Epoch: 01 December)

Event Time Altitude Azimuth Distance (km) Brightness Sun altitude
Rises 16:36:02 0° 22° (NNE) 2,918 6.7 -7.9°
Reaches altitude 10° 16:38:27 10° 33° (NNE) 2,005 5.8 -8.3°
Maximum altitude 16:42:19 30° 95° (E) 1,122 4.4 -8.9°
Drops below altitude 10° 16:46:08 10° 157° (SSE) 1,989 6.0 -9.5°
Sets 16:48:32 0° 168° (SSE) 2,890 7.0 -9.8°
